Regional Weather Roundup
Issued by NWS

Home | Current Version | Previous Version | Graphics & Text | Print | Product List | Glossary On
Versions: 1 2 3 4 5 6 7 8 9 10 11 12 13 14 15 16 17 18 19 20 21 22 23 24 25 26 27 28 29 30 31 32 33 34 35 36 37 38 39 40 41 42 43 44 45 46 47 48 49 50
000
ASUS45 KABQ 250010
RWRNM
NEW MEXICO REGIONAL WEATHER ROUNDUP
NATIONAL WEATHER SERVICE ALBUQUERQUE NM
600 PM MDT SUN JUL 24 2016

NOTE: "FAIR" MEANS FEW OR NO CLOUDS BELOW 12,000 FEET AGL WITH NO
       SIGNIFICANT WEATHER OR OBSTRUCTIONS TO VISION.

      THIS PRODUCT IS RELEASED AS TWO VERSIONS.  ONE VERSION NEAR
      THE TOP OF THE HOUR CONTAINING PRELIMINARY DATA FROM ALBUQUERQUE
      AND OTHER STATIONS.  A FINAL VERSION WITH ADDITIONAL DATA IS
      ISSUED ABOUT 10 MINUTES AFTER THE HOUR.

NMZ501-503-504-510>518-250100-
NORTHWEST PLATEAU/NORTHCENTRAL MOUNTAINS

CITY           SKY/WX    TMP DP  RH WIND       PRES   REMARKS
FARMINGTON     FAIR      92  37  14 VRB6      30.09R
6HR MIN TEMP:  89; 6HR MAX TEMP:  97;

LOS ALAMOS     PTSUNNY   82  41  23 SE5       30.29S
SANTA FE       FAIR      84  45  25 SE18      30.21R
6HR MIN TEMP:  83; 6HR MAX TEMP:  96; 6HR PCP: TRACE;

TAOS           FAIR      79  41  25 SE23      30.29S
ANGEL FIRE     FAIR      66  51  58 CALM      30.44F

$$
NMZ402-403-502-505>509-250100-
WESTCENTRAL MOUNTAINS/SOUTHWEST MOUNTAINS

CITY           SKY/WX    TMP DP  RH WIND       PRES   REMARKS
GALLUP         FAIR      85  45  24 SE9       30.20F
6HR MIN TEMP:  82; 6HR MAX TEMP:  93; 6HR PCP: TRACE;

GRANTS         FAIR      80  43  27 N9        30.24S
SILVER CITY    FAIR      91  46  21 NW13      30.08S

$$
NMZ407-409-411-412-250100-
SOUTHERN DESERTS

CITY           SKY/WX    TMP DP  RH WIND       PRES   REMARKS
LORDSBURG      FAIR      99  48  18 NW10G20   29.97S HX  95
DEMING         FAIR      97  45  16 W12       29.96R
6HR MIN TEMP:  96; 6HR MAX TEMP: 105;

LAS CRUCES     FAIR     102  38  11 S5        29.95F HX  96
HOLLOMAN AFB   FAIR      98  43  15 NE17      29.92F
ALAMOGORDO     FAIR      90  55  31 NE10      29.96F
T OR C         FAIR      92  44  19 NW18G28   30.04R
6HR MIN TEMP:  91; 6HR MAX TEMP: 103; 6HR PCP: TRACE;


$$
NMZ519>523-250100-
CENTRAL VALLEYS/CENTRAL HIGHLANDS

CITY           SKY/WX    TMP DP  RH WIND       PRES   REMARKS
ALBUQUERQUE    TSTM      86  54  33 E9        30.12R
6HR MIN TEMP:  86; 6HR MAX TEMP:  99; 6HR PCP:  0.01;

DOUBLE EAGLE   PTSUNNY   84  46  26 S10G17    30.20R THUNDER
MORIARTY ARPT  CLOUDY    70  51  50 NW3       30.23F
6HR MIN TEMP:  65; 6HR MAX TEMP:  95; 6HR PCP:  0.24;

CLINES CORNERS RAIN      63  54  72 NW17      30.33S
6HR MIN TEMP:  63; 6HR MAX TEMP:  90; 6HR PCP:  0.11;

BELEN          CLOUDY    93  40  15 N17G24    30.08S
6HR MIN TEMP:  92; 6HR MAX TEMP: 100;

SOCORRO        FAIR      90  41  18 W13       30.02F
6HR MIN TEMP:  89; 6HR MAX TEMP: 104;


$$
NMZ524>526-539-540-250100-
SOUTHCENTRAL MOUNTAINS

CITY           SKY/WX    TMP DP  RH WIND       PRES   REMARKS
RUIDOSO          N/A     84  41  21 E8G16     30.25S

$$
NMZ527>531-250100-
NORTHEAST HIGHLANDS/NORTHEAST PLAINS

CITY           SKY/WX    TMP DP  RH WIND       PRES   REMARKS
LAS VEGAS      TSTM      70  49  47 N12       30.30S
6HR MIN TEMP:  71; 6HR MAX TEMP:  89; 6HR PCP: TRACE;

RATON          FAIR      65  58  78 NE10      30.27F
6HR MIN TEMP:  62; 6HR MAX TEMP:  90; 6HR PCP:  0.08;

CLAYTON        TSTM      65  63  93 N24G36    30.18R VSB 1/2
6HR MIN TEMP:  65; 6HR MAX TEMP:  96; 6HR PCP:  0.41;


$$
NMZ532>537-250100-
EASTCENTRAL PLAINS

CITY           SKY/WX    TMP DP  RH WIND       PRES   REMARKS
TUCUMCARI      FAIR      97  46  17 SE14      29.99S
6HR MIN TEMP:  95; 6HR MAX TEMP: 103;

CANNON AFB     FAIR      95  49  20 SE13G21   30.04F
6HR MIN TEMP:  92; 6HR MAX TEMP:  97;

CLOVIS AIRPORT FAIR      95  52  23 SE10G16   30.05S

$$
NMZ028-029-538-250100-
SOUTHEAST PLAINS

CITY           SKY/WX    TMP DP  RH WIND       PRES   REMARKS
ROSWELL        FAIR     101  43  13 S13G20    29.95F HX  96
6HR MIN TEMP:  96; 6HR MAX TEMP: 104;

ARTESIA        FAIR     100  48  17 SE12      29.94F HX  97
CARLSBAD       PTSUNNY  100  49  17 E7        29.90F HX  97
6HR MIN TEMP:  94; 6HR MAX TEMP: 103;

HOBBS          SUNNY     97  48  19 E12       29.99S


$$



USA.gov is the U.S. government's official web portal to all federal, state and local government web resources and services.